Index of /20260423/WXO-DD/model_rdps/10km/00/001
Name Last modified Size Description
Parent Directory -
20260423T00Z_MSC_RDPS_AbsoluteVorticity_IsbL-0250_RLatLon0.09_PT001H.grib2 2026-04-23 02:40 592K
20260423T00Z_MSC_RDPS_AbsoluteVorticity_IsbL-0500_RLatLon0.09_PT001H.grib2 2026-04-23 02:40 555K
20260423T00Z_MSC_RDPS_AbsoluteVorticity_IsbL-0700_RLatLon0.09_PT001H.grib2 2026-04-23 02:40 613K
20260423T00Z_MSC_RDPS_AbsoluteVorticity_IsbL-0850_RLatLon0.09_PT001H.grib2 2026-04-23 02:40 763K
20260423T00Z_MSC_RDPS_AirTemp_AGL-120m_RLatLon0.09_PT001H.grib2 2026-04-23 02:40 364K
20260423T00Z_MSC_RDPS_AirTemp_AGL-2m_RLatLon0.09_PT001H.grib2 2026-04-23 02:40 605K
20260423T00Z_MSC_RDPS_AirTemp_AGL-40m_RLatLon0.09_PT001H.grib2 2026-04-23 02:40 373K
20260423T00Z_MSC_RDPS_AirTemp_AGL-80m_RLatLon0.09_PT001H.grib2 2026-04-23 02:40 367K
20260423T00Z_MSC_RDPS_AirTemp_IsbL-0001_RLatLon0.09_PT001H.grib2 2026-04-23 02:40 224K
20260423T00Z_MSC_RDPS_AirTemp_IsbL-0005_RLatLon0.09_PT001H.grib2 2026-04-23 02:40 317K
20260423T00Z_MSC_RDPS_AirTemp_IsbL-0010_RLatLon0.09_PT001H.grib2 2026-04-23 02:40 285K
20260423T00Z_MSC_RDPS_AirTemp_IsbL-0020_RLatLon0.09_PT001H.grib2 2026-04-23 02:40 303K
20260423T00Z_MSC_RDPS_AirTemp_IsbL-0030_RLatLon0.09_PT001H.grib2 2026-04-23 02:40 323K
20260423T00Z_MSC_RDPS_AirTemp_IsbL-0050_RLatLon0.09_PT001H.grib2 2026-04-23 02:40 305K
20260423T00Z_MSC_RDPS_AirTemp_IsbL-0100_RLatLon0.09_PT001H.grib2 2026-04-23 02:40 412K
20260423T00Z_MSC_RDPS_AirTemp_IsbL-0150_RLatLon0.09_PT001H.grib2 2026-04-23 02:40 413K
20260423T00Z_MSC_RDPS_AirTemp_IsbL-0175_RLatLon0.09_PT001H.grib2 2026-04-23 02:40 417K
20260423T00Z_MSC_RDPS_AirTemp_IsbL-0200_RLatLon0.09_PT001H.grib2 2026-04-23 02:40 418K
20260423T00Z_MSC_RDPS_AirTemp_IsbL-0225_RLatLon0.09_PT001H.grib2 2026-04-23 02:40 413K
20260423T00Z_MSC_RDPS_AirTemp_IsbL-0250_RLatLon0.09_PT001H.grib2 2026-04-23 02:40 414K
20260423T00Z_MSC_RDPS_AirTemp_IsbL-0275_RLatLon0.09_PT001H.grib2 2026-04-23 02:40 399K
20260423T00Z_MSC_RDPS_AirTemp_IsbL-0300_RLatLon0.09_PT001H.grib2 2026-04-23 02:40 403K
20260423T00Z_MSC_RDPS_AirTemp_IsbL-0350_RLatLon0.09_PT001H.grib2 2026-04-23 02:40 422K
20260423T00Z_MSC_RDPS_AirTemp_IsbL-0400_RLatLon0.09_PT001H.grib2 2026-04-23 02:40 425K
20260423T00Z_MSC_RDPS_AirTemp_IsbL-0450_RLatLon0.09_PT001H.grib2 2026-04-23 02:40 401K
20260423T00Z_MSC_RDPS_AirTemp_IsbL-0500_RLatLon0.09_PT001H.grib2 2026-04-23 02:40 415K
20260423T00Z_MSC_RDPS_AirTemp_IsbL-0550_RLatLon0.09_PT001H.grib2 2026-04-23 02:40 434K
20260423T00Z_MSC_RDPS_AirTemp_IsbL-0600_RLatLon0.09_PT001H.grib2 2026-04-23 02:40 451K
20260423T00Z_MSC_RDPS_AirTemp_IsbL-0650_RLatLon0.09_PT001H.grib2 2026-04-23 02:40 461K
20260423T00Z_MSC_RDPS_AirTemp_IsbL-0700_RLatLon0.09_PT001H.grib2 2026-04-23 02:40 481K
20260423T00Z_MSC_RDPS_AirTemp_IsbL-0750_RLatLon0.09_PT001H.grib2 2026-04-23 02:40 406K
20260423T00Z_MSC_RDPS_AirTemp_IsbL-0800_RLatLon0.09_PT001H.grib2 2026-04-23 02:40 451K
20260423T00Z_MSC_RDPS_AirTemp_IsbL-0850_RLatLon0.09_PT001H.grib2 2026-04-23 02:40 484K
20260423T00Z_MSC_RDPS_AirTemp_IsbL-0875_RLatLon0.09_PT001H.grib2 2026-04-23 02:40 495K
20260423T00Z_MSC_RDPS_AirTemp_IsbL-0900_RLatLon0.09_PT001H.grib2 2026-04-23 02:40 500K
20260423T00Z_MSC_RDPS_AirTemp_IsbL-0925_RLatLon0.09_PT001H.grib2 2026-04-23 02:40 499K
20260423T00Z_MSC_RDPS_AirTemp_IsbL-0950_RLatLon0.09_PT001H.grib2 2026-04-23 02:40 504K
20260423T00Z_MSC_RDPS_AirTemp_IsbL-0970_RLatLon0.09_PT001H.grib2 2026-04-23 02:40 500K
20260423T00Z_MSC_RDPS_AirTemp_IsbL-0985_RLatLon0.09_PT001H.grib2 2026-04-23 02:40 492K
20260423T00Z_MSC_RDPS_AirTemp_IsbL-1000_RLatLon0.09_PT001H.grib2 2026-04-23 02:40 473K
20260423T00Z_MSC_RDPS_AirTemp_IsbL-1015_RLatLon0.09_PT001H.grib2 2026-04-23 02:40 464K
20260423T00Z_MSC_RDPS_Albedo_Sfc_RLatLon0.09_PT001H.grib2 2026-04-23 02:40 164K
20260423T00Z_MSC_RDPS_CAPE_Sfc_RLatLon0.09_PT001H.grib2 2026-04-23 02:40 1.7M
20260423T00Z_MSC_RDPS_CIN_Sfc_RLatLon0.09_PT001H.grib2 2026-04-23 02:40 1.2M
20260423T00Z_MSC_RDPS_CloudWater_EAtm_RLatLon0.09_PT001H.grib2 2026-04-23 02:40 210K
20260423T00Z_MSC_RDPS_ConvectivePrecip-Accum_Sfc_RLatLon0.09_PT001H.grib2 2026-04-23 02:40 333K
20260423T00Z_MSC_RDPS_DewPointDepression_AGL-2m_RLatLon0.09_PT001H.grib2 2026-04-23 02:40 391K
20260423T00Z_MSC_RDPS_DewPointDepression_IsbL-0001_RLatLon0.09_PT001H.grib2 2026-04-23 02:40 193
20260423T00Z_MSC_RDPS_DewPointDepression_IsbL-0005_RLatLon0.09_PT001H.grib2 2026-04-23 02:40 193
20260423T00Z_MSC_RDPS_DewPointDepression_IsbL-0010_RLatLon0.09_PT001H.grib2 2026-04-23 02:40 193
20260423T00Z_MSC_RDPS_DewPointDepression_IsbL-0020_RLatLon0.09_PT001H.grib2 2026-04-23 02:40 193
20260423T00Z_MSC_RDPS_DewPointDepression_IsbL-0030_RLatLon0.09_PT001H.grib2 2026-04-23 02:40 193
20260423T00Z_MSC_RDPS_DewPointDepression_IsbL-0050_RLatLon0.09_PT001H.grib2 2026-04-23 02:40 86K
20260423T00Z_MSC_RDPS_DewPointDepression_IsbL-0100_RLatLon0.09_PT001H.grib2 2026-04-23 02:40 124K
20260423T00Z_MSC_RDPS_DewPointDepression_IsbL-0150_RLatLon0.09_PT001H.grib2 2026-04-23 02:40 157K
20260423T00Z_MSC_RDPS_DewPointDepression_IsbL-0175_RLatLon0.09_PT001H.grib2 2026-04-23 02:40 191K
20260423T00Z_MSC_RDPS_DewPointDepression_IsbL-0200_RLatLon0.09_PT001H.grib2 2026-04-23 02:40 225K
20260423T00Z_MSC_RDPS_DewPointDepression_IsbL-0225_RLatLon0.09_PT001H.grib2 2026-04-23 02:40 256K
20260423T00Z_MSC_RDPS_DewPointDepression_IsbL-0250_RLatLon0.09_PT001H.grib2 2026-04-23 02:40 291K
20260423T00Z_MSC_RDPS_DewPointDepression_IsbL-0275_RLatLon0.09_PT001H.grib2 2026-04-23 02:40 304K
20260423T00Z_MSC_RDPS_DewPointDepression_IsbL-0300_RLatLon0.09_PT001H.grib2 2026-04-23 02:40 323K
20260423T00Z_MSC_RDPS_DewPointDepression_IsbL-0350_RLatLon0.09_PT001H.grib2 2026-04-23 02:40 332K
20260423T00Z_MSC_RDPS_DewPointDepression_IsbL-0400_RLatLon0.09_PT001H.grib2 2026-04-23 02:40 344K
20260423T00Z_MSC_RDPS_DewPointDepression_IsbL-0450_RLatLon0.09_PT001H.grib2 2026-04-23 02:40 354K
20260423T00Z_MSC_RDPS_DewPointDepression_IsbL-0500_RLatLon0.09_PT001H.grib2 2026-04-23 02:40 361K
20260423T00Z_MSC_RDPS_DewPointDepression_IsbL-0550_RLatLon0.09_PT001H.grib2 2026-04-23 02:40 370K
20260423T00Z_MSC_RDPS_DewPointDepression_IsbL-0600_RLatLon0.09_PT001H.grib2 2026-04-23 02:40 375K
20260423T00Z_MSC_RDPS_DewPointDepression_IsbL-0650_RLatLon0.09_PT001H.grib2 2026-04-23 02:40 378K
20260423T00Z_MSC_RDPS_DewPointDepression_IsbL-0700_RLatLon0.09_PT001H.grib2 2026-04-23 02:40 384K
20260423T00Z_MSC_RDPS_DewPointDepression_IsbL-0750_RLatLon0.09_PT001H.grib2 2026-04-23 02:40 401K
20260423T00Z_MSC_RDPS_DewPointDepression_IsbL-0800_RLatLon0.09_PT001H.grib2 2026-04-23 02:40 435K
20260423T00Z_MSC_RDPS_DewPointDepression_IsbL-0850_RLatLon0.09_PT001H.grib2 2026-04-23 02:40 443K
20260423T00Z_MSC_RDPS_DewPointDepression_IsbL-0875_RLatLon0.09_PT001H.grib2 2026-04-23 02:40 443K
20260423T00Z_MSC_RDPS_DewPointDepression_IsbL-0900_RLatLon0.09_PT001H.grib2 2026-04-23 02:40 440K
20260423T00Z_MSC_RDPS_DewPointDepression_IsbL-0925_RLatLon0.09_PT001H.grib2 2026-04-23 02:40 432K
20260423T00Z_MSC_RDPS_DewPointDepression_IsbL-0950_RLatLon0.09_PT001H.grib2 2026-04-23 02:40 424K
20260423T00Z_MSC_RDPS_DewPointDepression_IsbL-0970_RLatLon0.09_PT001H.grib2 2026-04-23 02:40 417K
20260423T00Z_MSC_RDPS_DewPointDepression_IsbL-0985_RLatLon0.09_PT001H.grib2 2026-04-23 02:40 412K
20260423T00Z_MSC_RDPS_DewPointDepression_IsbL-1000_RLatLon0.09_PT001H.grib2 2026-04-23 02:40 402K
20260423T00Z_MSC_RDPS_DewPointDepression_IsbL-1015_RLatLon0.09_PT001H.grib2 2026-04-23 02:40 392K
20260423T00Z_MSC_RDPS_DewPoint_AGL-2m_RLatLon0.09_PT001H.grib2 2026-04-23 02:40 375K
20260423T00Z_MSC_RDPS_DownwardLongwaveRadiationFlux-Accum_Sfc_RLatLon0.09_PT001H.grib2 2026-04-23 02:40 538K
20260423T00Z_MSC_RDPS_DownwardShortwaveRadiationFlux-Accum_NTAtm_RLatLon0.09_PT001H.grib2 2026-04-23 02:40 63K
20260423T00Z_MSC_RDPS_DownwardShortwaveRadiationFlux-Accum_Sfc_RLatLon0.09_PT001H.grib2 2026-04-23 02:40 373K
20260423T00Z_MSC_RDPS_FreezingRain-Accum1h_Sfc_RLatLon0.09_PT001H.grib2 2026-04-23 02:40 16K
20260423T00Z_MSC_RDPS_FreezingRain-Accum_Sfc_RLatLon0.09_PT001H.grib2 2026-04-23 02:40 19K
20260423T00Z_MSC_RDPS_GeopotentialHeight_IsbL-0001_RLatLon0.09_PT001H.grib2 2026-04-23 02:40 269K
20260423T00Z_MSC_RDPS_GeopotentialHeight_IsbL-0005_RLatLon0.09_PT001H.grib2 2026-04-23 02:40 233K
20260423T00Z_MSC_RDPS_GeopotentialHeight_IsbL-0010_RLatLon0.09_PT001H.grib2 2026-04-23 02:40 334K
20260423T00Z_MSC_RDPS_GeopotentialHeight_IsbL-0020_RLatLon0.09_PT001H.grib2 2026-04-23 02:40 300K
20260423T00Z_MSC_RDPS_GeopotentialHeight_IsbL-0030_RLatLon0.09_PT001H.grib2 2026-04-23 02:40 301K
20260423T00Z_MSC_RDPS_GeopotentialHeight_IsbL-0050_RLatLon0.09_PT001H.grib2 2026-04-23 02:40 304K
20260423T00Z_MSC_RDPS_GeopotentialHeight_IsbL-0100_RLatLon0.09_PT001H.grib2 2026-04-23 02:40 287K
20260423T00Z_MSC_RDPS_GeopotentialHeight_IsbL-0150_RLatLon0.09_PT001H.grib2 2026-04-23 02:40 231K
20260423T00Z_MSC_RDPS_GeopotentialHeight_IsbL-0175_RLatLon0.09_PT001H.grib2 2026-04-23 02:40 266K
20260423T00Z_MSC_RDPS_GeopotentialHeight_IsbL-0200_RLatLon0.09_PT001H.grib2 2026-04-23 02:40 269K
20260423T00Z_MSC_RDPS_GeopotentialHeight_IsbL-0225_RLatLon0.09_PT001H.grib2 2026-04-23 02:40 272K
20260423T00Z_MSC_RDPS_GeopotentialHeight_IsbL-0250_RLatLon0.09_PT001H.grib2 2026-04-23 02:40 272K
20260423T00Z_MSC_RDPS_GeopotentialHeight_IsbL-0275_RLatLon0.09_PT001H.grib2 2026-04-23 02:40 271K
20260423T00Z_MSC_RDPS_GeopotentialHeight_IsbL-0300_RLatLon0.09_PT001H.grib2 2026-04-23 02:40 271K
20260423T00Z_MSC_RDPS_GeopotentialHeight_IsbL-0350_RLatLon0.09_PT001H.grib2 2026-04-23 02:40 236K
20260423T00Z_MSC_RDPS_GeopotentialHeight_IsbL-0400_RLatLon0.09_PT001H.grib2 2026-04-23 02:40 232K
20260423T00Z_MSC_RDPS_GeopotentialHeight_IsbL-0450_RLatLon0.09_PT001H.grib2 2026-04-23 02:40 301K
20260423T00Z_MSC_RDPS_GeopotentialHeight_IsbL-0500_RLatLon0.09_PT001H.grib2 2026-04-23 02:40 297K
20260423T00Z_MSC_RDPS_GeopotentialHeight_IsbL-0550_RLatLon0.09_PT001H.grib2 2026-04-23 02:40 294K
20260423T00Z_MSC_RDPS_GeopotentialHeight_IsbL-0600_RLatLon0.09_PT001H.grib2 2026-04-23 02:40 289K
20260423T00Z_MSC_RDPS_GeopotentialHeight_IsbL-0650_RLatLon0.09_PT001H.grib2 2026-04-23 02:40 287K
20260423T00Z_MSC_RDPS_GeopotentialHeight_IsbL-0700_RLatLon0.09_PT001H.grib2 2026-04-23 02:40 258K
20260423T00Z_MSC_RDPS_GeopotentialHeight_IsbL-0750_RLatLon0.09_PT001H.grib2 2026-04-23 02:40 259K
20260423T00Z_MSC_RDPS_GeopotentialHeight_IsbL-0800_RLatLon0.09_PT001H.grib2 2026-04-23 02:40 264K
20260423T00Z_MSC_RDPS_GeopotentialHeight_IsbL-0850_RLatLon0.09_PT001H.grib2 2026-04-23 02:40 268K
20260423T00Z_MSC_RDPS_GeopotentialHeight_IsbL-0875_RLatLon0.09_PT001H.grib2 2026-04-23 02:40 271K
20260423T00Z_MSC_RDPS_GeopotentialHeight_IsbL-0900_RLatLon0.09_PT001H.grib2 2026-04-23 02:40 275K
20260423T00Z_MSC_RDPS_GeopotentialHeight_IsbL-0925_RLatLon0.09_PT001H.grib2 2026-04-23 02:40 277K
20260423T00Z_MSC_RDPS_GeopotentialHeight_IsbL-0950_RLatLon0.09_PT001H.grib2 2026-04-23 02:40 280K
20260423T00Z_MSC_RDPS_GeopotentialHeight_IsbL-0970_RLatLon0.09_PT001H.grib2 2026-04-23 02:40 285K
20260423T00Z_MSC_RDPS_GeopotentialHeight_IsbL-0985_RLatLon0.09_PT001H.grib2 2026-04-23 02:40 291K
20260423T00Z_MSC_RDPS_GeopotentialHeight_IsbL-1000_RLatLon0.09_PT001H.grib2 2026-04-23 02:40 298K
20260423T00Z_MSC_RDPS_GeopotentialHeight_IsbL-1015_RLatLon0.09_PT001H.grib2 2026-04-23 02:40 308K
20260423T00Z_MSC_RDPS_Humidex_Sfc_RLatLon0.09_PT001H.grib2 2026-04-23 02:40 2.4M
20260423T00Z_MSC_RDPS_IcePellets-Accum1h_Sfc_RLatLon0.09_PT001H.grib2 2026-04-23 02:40 11K
20260423T00Z_MSC_RDPS_IcePellets-Accum_Sfc_RLatLon0.09_PT001H.grib2 2026-04-23 02:40 12K
20260423T00Z_MSC_RDPS_KIndex_Sfc_RLatLon0.09_PT001H.grib2 2026-04-23 02:40 2.3M
20260423T00Z_MSC_RDPS_LatentHeatNetFlux_Sfc_RLatLon0.09_PT001H.grib2 2026-04-23 02:40 330K
20260423T00Z_MSC_RDPS_LiftedIndex-MU-VT_IsbL-0500_RLatLon0.09_PT001H.grib2 2026-04-23 02:40 2.4M
20260423T00Z_MSC_RDPS_NetLongwaveRadiationFlux-Accum_Sfc_RLatLon0.09_PT001H.grib2 2026-04-23 02:40 677K
20260423T00Z_MSC_RDPS_NetShortwaveRadiationFlux-Accum_Sfc_RLatLon0.09_PT001H.grib2 2026-04-23 02:40 356K
20260423T00Z_MSC_RDPS_PlanetaryBoundaryLayerHeight_Sfc_RLatLon0.09_PT001H.grib2 2026-04-23 02:40 1.0M
20260423T00Z_MSC_RDPS_Precip-Accum1h_Sfc_RLatLon0.09_PT001H.grib2 2026-04-23 02:40 1.1M
20260423T00Z_MSC_RDPS_Precip-Accum_Sfc_RLatLon0.09_PT001H.grib2 2026-04-23 02:40 1.1M
20260423T00Z_MSC_RDPS_PrecipRate_Sfc_RLatLon0.09_PT001H.grib2 2026-04-23 02:40 167K
20260423T00Z_MSC_RDPS_PrecipType-Instant_Sfc_RLatLon0.09_PT001H.grib2 2026-04-23 02:40 542K
20260423T00Z_MSC_RDPS_Pressure_MSL_RLatLon0.09_PT001H.grib2 2026-04-23 02:40 327K
20260423T00Z_MSC_RDPS_Pressure_PVU-1.5_RLatLon0.09_PT001H.grib2 2026-04-23 02:40 2.3M
20260423T00Z_MSC_RDPS_Pressure_PVU-1_RLatLon0.09_PT001H.grib2 2026-04-23 02:40 2.4M
20260423T00Z_MSC_RDPS_Pressure_PVU-2_RLatLon0.09_PT001H.grib2 2026-04-23 02:40 2.4M
20260423T00Z_MSC_RDPS_Pressure_Sfc_RLatLon0.09_PT001H.grib2 2026-04-23 02:40 500K
20260423T00Z_MSC_RDPS_RadiativeTemp_Sfc_RLatLon0.09_PT001H.grib2 2026-04-23 02:40 294K
20260423T00Z_MSC_RDPS_Rain-Accum1h_Sfc_RLatLon0.09_PT001H.grib2 2026-04-23 02:40 554K
20260423T00Z_MSC_RDPS_Rain-Accum_Sfc_RLatLon0.09_PT001H.grib2 2026-04-23 02:40 779K
20260423T00Z_MSC_RDPS_RelativeHumidity_AGL-2m_RLatLon0.09_PT001H.grib2 2026-04-23 02:40 1.0M
20260423T00Z_MSC_RDPS_RelativeHumidity_IsbL-0010_RLatLon0.09_PT001H.grib2 2026-04-23 02:40 620K
20260423T00Z_MSC_RDPS_RelativeHumidity_IsbL-0020_RLatLon0.09_PT001H.grib2 2026-04-23 02:40 648K
20260423T00Z_MSC_RDPS_RelativeHumidity_IsbL-0030_RLatLon0.09_PT001H.grib2 2026-04-23 02:40 533K
20260423T00Z_MSC_RDPS_RelativeHumidity_IsbL-0050_RLatLon0.09_PT001H.grib2 2026-04-23 02:40 318K
20260423T00Z_MSC_RDPS_RelativeHumidity_IsbL-0100_RLatLon0.09_PT001H.grib2 2026-04-23 02:40 256K
20260423T00Z_MSC_RDPS_RelativeHumidity_IsbL-0150_RLatLon0.09_PT001H.grib2 2026-04-23 02:40 374K
20260423T00Z_MSC_RDPS_RelativeHumidity_IsbL-0175_RLatLon0.09_PT001H.grib2 2026-04-23 02:40 470K
20260423T00Z_MSC_RDPS_RelativeHumidity_IsbL-0200_RLatLon0.09_PT001H.grib2 2026-04-23 02:40 559K
20260423T00Z_MSC_RDPS_RelativeHumidity_IsbL-0225_RLatLon0.09_PT001H.grib2 2026-04-23 02:40 619K
20260423T00Z_MSC_RDPS_RelativeHumidity_IsbL-0250_RLatLon0.09_PT001H.grib2 2026-04-23 02:40 676K
20260423T00Z_MSC_RDPS_RelativeHumidity_IsbL-0275_RLatLon0.09_PT001H.grib2 2026-04-23 02:40 697K
20260423T00Z_MSC_RDPS_RelativeHumidity_IsbL-0300_RLatLon0.09_PT001H.grib2 2026-04-23 02:40 736K
20260423T00Z_MSC_RDPS_RelativeHumidity_IsbL-0350_RLatLon0.09_PT001H.grib2 2026-04-23 02:40 759K
20260423T00Z_MSC_RDPS_RelativeHumidity_IsbL-0400_RLatLon0.09_PT001H.grib2 2026-04-23 02:40 771K
20260423T00Z_MSC_RDPS_RelativeHumidity_IsbL-0450_RLatLon0.09_PT001H.grib2 2026-04-23 02:40 781K
20260423T00Z_MSC_RDPS_RelativeHumidity_IsbL-0500_RLatLon0.09_PT001H.grib2 2026-04-23 02:40 804K
20260423T00Z_MSC_RDPS_RelativeHumidity_IsbL-0550_RLatLon0.09_PT001H.grib2 2026-04-23 02:40 827K
20260423T00Z_MSC_RDPS_RelativeHumidity_IsbL-0600_RLatLon0.09_PT001H.grib2 2026-04-23 02:40 846K
20260423T00Z_MSC_RDPS_RelativeHumidity_IsbL-0650_RLatLon0.09_PT001H.grib2 2026-04-23 02:40 855K
20260423T00Z_MSC_RDPS_RelativeHumidity_IsbL-0700_RLatLon0.09_PT001H.grib2 2026-04-23 02:40 869K
20260423T00Z_MSC_RDPS_RelativeHumidity_IsbL-0750_RLatLon0.09_PT001H.grib2 2026-04-23 02:40 904K
20260423T00Z_MSC_RDPS_RelativeHumidity_IsbL-0800_RLatLon0.09_PT001H.grib2 2026-04-23 02:40 970K
20260423T00Z_MSC_RDPS_RelativeHumidity_IsbL-0850_RLatLon0.09_PT001H.grib2 2026-04-23 02:40 1.0M
20260423T00Z_MSC_RDPS_RelativeHumidity_IsbL-0875_RLatLon0.09_PT001H.grib2 2026-04-23 02:40 1.0M
20260423T00Z_MSC_RDPS_RelativeHumidity_IsbL-0900_RLatLon0.09_PT001H.grib2 2026-04-23 02:40 1.0M
20260423T00Z_MSC_RDPS_RelativeHumidity_IsbL-0925_RLatLon0.09_PT001H.grib2 2026-04-23 02:40 1.0M
20260423T00Z_MSC_RDPS_RelativeHumidity_IsbL-0950_RLatLon0.09_PT001H.grib2 2026-04-23 02:40 1.0M
20260423T00Z_MSC_RDPS_RelativeHumidity_IsbL-0970_RLatLon0.09_PT001H.grib2 2026-04-23 02:40 1.0M
20260423T00Z_MSC_RDPS_RelativeHumidity_IsbL-0985_RLatLon0.09_PT001H.grib2 2026-04-23 02:40 1.0M
20260423T00Z_MSC_RDPS_RelativeHumidity_IsbL-1000_RLatLon0.09_PT001H.grib2 2026-04-23 02:40 1.0M
20260423T00Z_MSC_RDPS_RelativeHumidity_IsbL-1015_RLatLon0.09_PT001H.grib2 2026-04-23 02:40 1.0M
20260423T00Z_MSC_RDPS_Runoff-Accum_Sfc_RLatLon0.09_PT001H.grib2 2026-04-23 02:40 29K
20260423T00Z_MSC_RDPS_SWEATIndex_Sfc_RLatLon0.09_PT001H.grib2 2026-04-23 02:40 2.4M
20260423T00Z_MSC_RDPS_SeeingIndex_EAtm_RLatLon0.09_PT001H.grib2 2026-04-23 02:40 1.0M
20260423T00Z_MSC_RDPS_SensibleHeatNetFlux_Sfc_RLatLon0.09_PT001H.grib2 2026-04-23 02:40 303K
20260423T00Z_MSC_RDPS_ShowalterIndex_IsbL-0500_RLatLon0.09_PT001H.grib2 2026-04-23 02:40 2.6M
20260423T00Z_MSC_RDPS_SkyTransparencyIndex_EAtm_RLatLon0.09_PT001H.grib2 2026-04-23 02:40 697K
20260423T00Z_MSC_RDPS_Snow-Accum1h_Sfc_RLatLon0.09_PT001H.grib2 2026-04-23 02:40 430K
20260423T00Z_MSC_RDPS_Snow-Accum_Sfc_RLatLon0.09_PT001H.grib2 2026-04-23 02:40 552K
20260423T00Z_MSC_RDPS_SnowDensity_Sfc_RLatLon0.09_PT001H.grib2 2026-04-23 02:40 168K
20260423T00Z_MSC_RDPS_SnowDepth_Sfc_RLatLon0.09_PT001H.grib2 2026-04-23 02:40 699K
20260423T00Z_MSC_RDPS_SoilTemp_DBS-0to10cm_RLatLon0.09_PT001H.grib2 2026-04-23 02:40 188K
20260423T00Z_MSC_RDPS_SoilTemp_Sfc_RLatLon0.09_PT001H.grib2 2026-04-23 02:40 248K
20260423T00Z_MSC_RDPS_SoilVolumetricIceContent_Sfc_RLatLon0.09_PT001H.grib2 2026-04-23 02:40 169K
20260423T00Z_MSC_RDPS_SoilVolumetricWaterContent_DBS-0to10cm_RLatLon0.09_PT001H.grib2 2026-04-23 02:40 251K
20260423T00Z_MSC_RDPS_SoilVolumetricWaterContent_DBS-0to1cm_RLatLon0.09_PT001H.grib2 2026-04-23 02:40 331K
20260423T00Z_MSC_RDPS_SpecificHumidity_AGL-120m_RLatLon0.09_PT001H.grib2 2026-04-23 02:40 456K
20260423T00Z_MSC_RDPS_SpecificHumidity_AGL-2m_RLatLon0.09_PT001H.grib2 2026-04-23 02:40 616K
20260423T00Z_MSC_RDPS_SpecificHumidity_AGL-40m_RLatLon0.09_PT001H.grib2 2026-04-23 02:40 461K
20260423T00Z_MSC_RDPS_SpecificHumidity_AGL-80m_RLatLon0.09_PT001H.grib2 2026-04-23 02:40 457K
20260423T00Z_MSC_RDPS_SpecificHumidity_IsbL-0001_RLatLon0.09_PT001H.grib2 2026-04-23 02:40 326K
20260423T00Z_MSC_RDPS_SpecificHumidity_IsbL-0005_RLatLon0.09_PT001H.grib2 2026-04-23 02:40 441K
20260423T00Z_MSC_RDPS_SpecificHumidity_IsbL-0010_RLatLon0.09_PT001H.grib2 2026-04-23 02:40 378K
20260423T00Z_MSC_RDPS_SpecificHumidity_IsbL-0020_RLatLon0.09_PT001H.grib2 2026-04-23 02:40 370K
20260423T00Z_MSC_RDPS_SpecificHumidity_IsbL-0030_RLatLon0.09_PT001H.grib2 2026-04-23 02:40 473K
20260423T00Z_MSC_RDPS_SpecificHumidity_IsbL-0050_RLatLon0.09_PT001H.grib2 2026-04-23 02:40 461K
20260423T00Z_MSC_RDPS_SpecificHumidity_IsbL-0100_RLatLon0.09_PT001H.grib2 2026-04-23 02:40 498K
20260423T00Z_MSC_RDPS_SpecificHumidity_IsbL-0150_RLatLon0.09_PT001H.grib2 2026-04-23 02:40 336K
20260423T00Z_MSC_RDPS_SpecificHumidity_IsbL-0175_RLatLon0.09_PT001H.grib2 2026-04-23 02:40 426K
20260423T00Z_MSC_RDPS_SpecificHumidity_IsbL-0200_RLatLon0.09_PT001H.grib2 2026-04-23 02:40 546K
20260423T00Z_MSC_RDPS_SpecificHumidity_IsbL-0225_RLatLon0.09_PT001H.grib2 2026-04-23 02:40 549K
20260423T00Z_MSC_RDPS_SpecificHumidity_IsbL-0250_RLatLon0.09_PT001H.grib2 2026-04-23 02:40 549K
20260423T00Z_MSC_RDPS_SpecificHumidity_IsbL-0275_RLatLon0.09_PT001H.grib2 2026-04-23 02:40 467K
20260423T00Z_MSC_RDPS_SpecificHumidity_IsbL-0300_RLatLon0.09_PT001H.grib2 2026-04-23 02:40 536K
20260423T00Z_MSC_RDPS_SpecificHumidity_IsbL-0350_RLatLon0.09_PT001H.grib2 2026-04-23 02:40 529K
20260423T00Z_MSC_RDPS_SpecificHumidity_IsbL-0400_RLatLon0.09_PT001H.grib2 2026-04-23 02:40 511K
20260423T00Z_MSC_RDPS_SpecificHumidity_IsbL-0450_RLatLon0.09_PT001H.grib2 2026-04-23 02:40 566K
20260423T00Z_MSC_RDPS_SpecificHumidity_IsbL-0500_RLatLon0.09_PT001H.grib2 2026-04-23 02:40 505K
20260423T00Z_MSC_RDPS_SpecificHumidity_IsbL-0550_RLatLon0.09_PT001H.grib2 2026-04-23 02:40 563K
20260423T00Z_MSC_RDPS_SpecificHumidity_IsbL-0600_RLatLon0.09_PT001H.grib2 2026-04-23 02:40 629K
20260423T00Z_MSC_RDPS_SpecificHumidity_IsbL-0650_RLatLon0.09_PT001H.grib2 2026-04-23 02:40 544K
20260423T00Z_MSC_RDPS_SpecificHumidity_IsbL-0700_RLatLon0.09_PT001H.grib2 2026-04-23 02:40 579K
20260423T00Z_MSC_RDPS_SpecificHumidity_IsbL-0750_RLatLon0.09_PT001H.grib2 2026-04-23 02:40 626K
20260423T00Z_MSC_RDPS_SpecificHumidity_IsbL-0800_RLatLon0.09_PT001H.grib2 2026-04-23 02:40 697K
20260423T00Z_MSC_RDPS_SpecificHumidity_IsbL-0850_RLatLon0.09_PT001H.grib2 2026-04-23 02:40 762K
20260423T00Z_MSC_RDPS_SpecificHumidity_IsbL-0875_RLatLon0.09_PT001H.grib2 2026-04-23 02:40 784K
20260423T00Z_MSC_RDPS_SpecificHumidity_IsbL-0900_RLatLon0.09_PT001H.grib2 2026-04-23 02:40 799K
20260423T00Z_MSC_RDPS_SpecificHumidity_IsbL-0925_RLatLon0.09_PT001H.grib2 2026-04-23 02:40 803K
20260423T00Z_MSC_RDPS_SpecificHumidity_IsbL-0950_RLatLon0.09_PT001H.grib2 2026-04-23 02:40 802K
20260423T00Z_MSC_RDPS_SpecificHumidity_IsbL-0970_RLatLon0.09_PT001H.grib2 2026-04-23 02:40 793K
20260423T00Z_MSC_RDPS_SpecificHumidity_IsbL-0985_RLatLon0.09_PT001H.grib2 2026-04-23 02:40 650K
20260423T00Z_MSC_RDPS_SpecificHumidity_IsbL-1000_RLatLon0.09_PT001H.grib2 2026-04-23 02:40 639K
20260423T00Z_MSC_RDPS_SpecificHumidity_IsbL-1015_RLatLon0.09_PT001H.grib2 2026-04-23 02:40 627K
20260423T00Z_MSC_RDPS_SpecificHumidity_Sfc_RLatLon0.09_PT001H.grib2 2026-04-23 02:40 290K
20260423T00Z_MSC_RDPS_StormRelativeHelicity_EtaL-10000_RLatLon0.09_PT001H.grib2 2026-04-23 02:40 1.1M
20260423T00Z_MSC_RDPS_StormSeverityIndex_EtaL-10000_RLatLon0.09_PT001H.grib2 2026-04-23 02:40 1.1M
20260423T00Z_MSC_RDPS_Thickness_IsbL-0850to0700_RLatLon0.09_PT001H.grib2 2026-04-23 02:40 179K
20260423T00Z_MSC_RDPS_Thickness_IsbL-1000to0500_RLatLon0.09_PT001H.grib2 2026-04-23 02:40 200K
20260423T00Z_MSC_RDPS_Thickness_IsbL-1000to0850_RLatLon0.09_PT001H.grib2 2026-04-23 02:40 184K
20260423T00Z_MSC_RDPS_TotalCloudCover_Sfc_RLatLon0.09_PT001H.grib2 2026-04-23 02:40 642K
20260423T00Z_MSC_RDPS_TotalTotalsIndex_Sfc_RLatLon0.09_PT001H.grib2 2026-04-23 02:40 2.3M
20260423T00Z_MSC_RDPS_UVIndex-ClearSky_Sfc_RLatLon0.09_PT001H.grib2 2026-04-23 02:40 135K
20260423T00Z_MSC_RDPS_UVIndex_Sfc_RLatLon0.09_PT001H.grib2 2026-04-23 02:40 295K
20260423T00Z_MSC_RDPS_UpwardLongwaveRadiationFlux_NTAtm_RLatLon0.09_PT001H.grib2 2026-04-23 02:40 481K
20260423T00Z_MSC_RDPS_UpwardShortwaveRadiationFlux_NTAtm_RLatLon0.09_PT001H.grib2 2026-04-23 02:40 274K
20260423T00Z_MSC_RDPS_VerticalVelocity_IsbL-0250_RLatLon0.09_PT001H.grib2 2026-04-23 02:40 588K
20260423T00Z_MSC_RDPS_VerticalVelocity_IsbL-0500_RLatLon0.09_PT001H.grib2 2026-04-23 02:40 552K
20260423T00Z_MSC_RDPS_VerticalVelocity_IsbL-0700_RLatLon0.09_PT001H.grib2 2026-04-23 02:40 604K
20260423T00Z_MSC_RDPS_VerticalVelocity_IsbL-0850_RLatLon0.09_PT001H.grib2 2026-04-23 02:40 691K
20260423T00Z_MSC_RDPS_VerticalWindShear_EtaL-6500_RLatLon0.09_PT001H.grib2 2026-04-23 02:40 1.2M
20260423T00Z_MSC_RDPS_WindChill_Sfc_RLatLon0.09_PT001H.grib2 2026-04-23 02:40 1.2M
20260423T00Z_MSC_RDPS_WindDir_AGL-10m_RLatLon0.09_PT001H.grib2 2026-04-23 02:40 912K
20260423T00Z_MSC_RDPS_WindDir_AGL-120m_RLatLon0.09_PT001H.grib2 2026-04-23 02:40 567K
20260423T00Z_MSC_RDPS_WindDir_AGL-40m_RLatLon0.09_PT001H.grib2 2026-04-23 02:40 591K
20260423T00Z_MSC_RDPS_WindDir_AGL-80m_RLatLon0.09_PT001H.grib2 2026-04-23 02:40 577K
20260423T00Z_MSC_RDPS_WindDir_IsbL-0001_RLatLon0.09_PT001H.grib2 2026-04-23 02:40 265K
20260423T00Z_MSC_RDPS_WindDir_IsbL-0005_RLatLon0.09_PT001H.grib2 2026-04-23 02:40 347K
20260423T00Z_MSC_RDPS_WindDir_IsbL-0010_RLatLon0.09_PT001H.grib2 2026-04-23 02:40 374K
20260423T00Z_MSC_RDPS_WindDir_IsbL-0020_RLatLon0.09_PT001H.grib2 2026-04-23 02:40 389K
20260423T00Z_MSC_RDPS_WindDir_IsbL-0030_RLatLon0.09_PT001H.grib2 2026-04-23 02:40 390K
20260423T00Z_MSC_RDPS_WindDir_IsbL-0050_RLatLon0.09_PT001H.grib2 2026-04-23 02:40 394K
20260423T00Z_MSC_RDPS_WindDir_IsbL-0100_RLatLon0.09_PT001H.grib2 2026-04-23 02:40 406K
20260423T00Z_MSC_RDPS_WindDir_IsbL-0150_RLatLon0.09_PT001H.grib2 2026-04-23 02:40 408K
20260423T00Z_MSC_RDPS_WindDir_IsbL-0175_RLatLon0.09_PT001H.grib2 2026-04-23 02:40 426K
20260423T00Z_MSC_RDPS_WindDir_IsbL-0200_RLatLon0.09_PT001H.grib2 2026-04-23 02:40 436K
20260423T00Z_MSC_RDPS_WindDir_IsbL-0225_RLatLon0.09_PT001H.grib2 2026-04-23 02:40 434K
20260423T00Z_MSC_RDPS_WindDir_IsbL-0250_RLatLon0.09_PT001H.grib2 2026-04-23 02:40 432K
20260423T00Z_MSC_RDPS_WindDir_IsbL-0275_RLatLon0.09_PT001H.grib2 2026-04-23 02:40 447K
20260423T00Z_MSC_RDPS_WindDir_IsbL-0300_RLatLon0.09_PT001H.grib2 2026-04-23 02:40 449K
20260423T00Z_MSC_RDPS_WindDir_IsbL-0350_RLatLon0.09_PT001H.grib2 2026-04-23 02:40 476K
20260423T00Z_MSC_RDPS_WindDir_IsbL-0400_RLatLon0.09_PT001H.grib2 2026-04-23 02:40 496K
20260423T00Z_MSC_RDPS_WindDir_IsbL-0450_RLatLon0.09_PT001H.grib2 2026-04-23 02:40 515K
20260423T00Z_MSC_RDPS_WindDir_IsbL-0500_RLatLon0.09_PT001H.grib2 2026-04-23 02:40 540K
20260423T00Z_MSC_RDPS_WindDir_IsbL-0550_RLatLon0.09_PT001H.grib2 2026-04-23 02:40 566K
20260423T00Z_MSC_RDPS_WindDir_IsbL-0600_RLatLon0.09_PT001H.grib2 2026-04-23 02:40 592K
20260423T00Z_MSC_RDPS_WindDir_IsbL-0650_RLatLon0.09_PT001H.grib2 2026-04-23 02:40 636K
20260423T00Z_MSC_RDPS_WindDir_IsbL-0700_RLatLon0.09_PT001H.grib2 2026-04-23 02:40 675K
20260423T00Z_MSC_RDPS_WindDir_IsbL-0750_RLatLon0.09_PT001H.grib2 2026-04-23 02:40 718K
20260423T00Z_MSC_RDPS_WindDir_IsbL-0800_RLatLon0.09_PT001H.grib2 2026-04-23 02:40 779K
20260423T00Z_MSC_RDPS_WindDir_IsbL-0850_RLatLon0.09_PT001H.grib2 2026-04-23 02:40 834K
20260423T00Z_MSC_RDPS_WindDir_IsbL-0875_RLatLon0.09_PT001H.grib2 2026-04-23 02:40 849K
20260423T00Z_MSC_RDPS_WindDir_IsbL-0900_RLatLon0.09_PT001H.grib2 2026-04-23 02:40 859K
20260423T00Z_MSC_RDPS_WindDir_IsbL-0925_RLatLon0.09_PT001H.grib2 2026-04-23 02:40 866K
20260423T00Z_MSC_RDPS_WindDir_IsbL-0950_RLatLon0.09_PT001H.grib2 2026-04-23 02:40 861K
20260423T00Z_MSC_RDPS_WindDir_IsbL-0970_RLatLon0.09_PT001H.grib2 2026-04-23 02:40 870K
20260423T00Z_MSC_RDPS_WindDir_IsbL-0985_RLatLon0.09_PT001H.grib2 2026-04-23 02:40 878K
20260423T00Z_MSC_RDPS_WindDir_IsbL-1000_RLatLon0.09_PT001H.grib2 2026-04-23 02:40 890K
20260423T00Z_MSC_RDPS_WindDir_IsbL-1015_RLatLon0.09_PT001H.grib2 2026-04-23 02:40 904K
20260423T00Z_MSC_RDPS_WindGust-Max_AGL-10m_RLatLon0.09_PT001H.grib2 2026-04-23 02:40 1.0M
20260423T00Z_MSC_RDPS_WindGust-Min_AGL-10m_RLatLon0.09_PT001H.grib2 2026-04-23 02:40 971K
20260423T00Z_MSC_RDPS_WindGust_AGL-10m_RLatLon0.09_PT001H.grib2 2026-04-23 02:40 1.0M
20260423T00Z_MSC_RDPS_WindSpeed_AGL-10m_RLatLon0.09_PT001H.grib2 2026-04-23 02:40 825K
20260423T00Z_MSC_RDPS_WindSpeed_AGL-120m_RLatLon0.09_PT001H.grib2 2026-04-23 02:40 525K
20260423T00Z_MSC_RDPS_WindSpeed_AGL-40m_RLatLon0.09_PT001H.grib2 2026-04-23 02:40 661K
20260423T00Z_MSC_RDPS_WindSpeed_AGL-80m_RLatLon0.09_PT001H.grib2 2026-04-23 02:40 528K
20260423T00Z_MSC_RDPS_WindSpeed_IsbL-0001_RLatLon0.09_PT001H.grib2 2026-04-23 02:40 241K
20260423T00Z_MSC_RDPS_WindSpeed_IsbL-0005_RLatLon0.09_PT001H.grib2 2026-04-23 02:40 282K
20260423T00Z_MSC_RDPS_WindSpeed_IsbL-0010_RLatLon0.09_PT001H.grib2 2026-04-23 02:40 295K
20260423T00Z_MSC_RDPS_WindSpeed_IsbL-0020_RLatLon0.09_PT001H.grib2 2026-04-23 02:40 313K
20260423T00Z_MSC_RDPS_WindSpeed_IsbL-0030_RLatLon0.09_PT001H.grib2 2026-04-23 02:40 314K
20260423T00Z_MSC_RDPS_WindSpeed_IsbL-0050_RLatLon0.09_PT001H.grib2 2026-04-23 02:40 447K
20260423T00Z_MSC_RDPS_WindSpeed_IsbL-0100_RLatLon0.09_PT001H.grib2 2026-04-23 02:40 473K
20260423T00Z_MSC_RDPS_WindSpeed_IsbL-0150_RLatLon0.09_PT001H.grib2 2026-04-23 02:40 478K
20260423T00Z_MSC_RDPS_WindSpeed_IsbL-0175_RLatLon0.09_PT001H.grib2 2026-04-23 02:40 404K
20260423T00Z_MSC_RDPS_WindSpeed_IsbL-0200_RLatLon0.09_PT001H.grib2 2026-04-23 02:40 443K
20260423T00Z_MSC_RDPS_WindSpeed_IsbL-0225_RLatLon0.09_PT001H.grib2 2026-04-23 02:40 447K
20260423T00Z_MSC_RDPS_WindSpeed_IsbL-0250_RLatLon0.09_PT001H.grib2 2026-04-23 02:40 448K
20260423T00Z_MSC_RDPS_WindSpeed_IsbL-0275_RLatLon0.09_PT001H.grib2 2026-04-23 02:40 459K
20260423T00Z_MSC_RDPS_WindSpeed_IsbL-0300_RLatLon0.09_PT001H.grib2 2026-04-23 02:40 456K
20260423T00Z_MSC_RDPS_WindSpeed_IsbL-0350_RLatLon0.09_PT001H.grib2 2026-04-23 02:40 468K
20260423T00Z_MSC_RDPS_WindSpeed_IsbL-0400_RLatLon0.09_PT001H.grib2 2026-04-23 02:40 473K
20260423T00Z_MSC_RDPS_WindSpeed_IsbL-0450_RLatLon0.09_PT001H.grib2 2026-04-23 02:40 459K
20260423T00Z_MSC_RDPS_WindSpeed_IsbL-0500_RLatLon0.09_PT001H.grib2 2026-04-23 02:40 462K
20260423T00Z_MSC_RDPS_WindSpeed_IsbL-0550_RLatLon0.09_PT001H.grib2 2026-04-23 02:40 466K
20260423T00Z_MSC_RDPS_WindSpeed_IsbL-0600_RLatLon0.09_PT001H.grib2 2026-04-23 02:40 595K
20260423T00Z_MSC_RDPS_WindSpeed_IsbL-0650_RLatLon0.09_PT001H.grib2 2026-04-23 02:40 657K
20260423T00Z_MSC_RDPS_WindSpeed_IsbL-0700_RLatLon0.09_PT001H.grib2 2026-04-23 02:40 674K
20260423T00Z_MSC_RDPS_WindSpeed_IsbL-0750_RLatLon0.09_PT001H.grib2 2026-04-23 02:40 701K
20260423T00Z_MSC_RDPS_WindSpeed_IsbL-0800_RLatLon0.09_PT001H.grib2 2026-04-23 02:40 751K
20260423T00Z_MSC_RDPS_WindSpeed_IsbL-0850_RLatLon0.09_PT001H.grib2 2026-04-23 02:40 800K
20260423T00Z_MSC_RDPS_WindSpeed_IsbL-0875_RLatLon0.09_PT001H.grib2 2026-04-23 02:40 819K
20260423T00Z_MSC_RDPS_WindSpeed_IsbL-0900_RLatLon0.09_PT001H.grib2 2026-04-23 02:40 833K
20260423T00Z_MSC_RDPS_WindSpeed_IsbL-0925_RLatLon0.09_PT001H.grib2 2026-04-23 02:40 844K
20260423T00Z_MSC_RDPS_WindSpeed_IsbL-0950_RLatLon0.09_PT001H.grib2 2026-04-23 02:40 839K
20260423T00Z_MSC_RDPS_WindSpeed_IsbL-0970_RLatLon0.09_PT001H.grib2 2026-04-23 02:40 844K
20260423T00Z_MSC_RDPS_WindSpeed_IsbL-0985_RLatLon0.09_PT001H.grib2 2026-04-23 02:40 842K
20260423T00Z_MSC_RDPS_WindSpeed_IsbL-1000_RLatLon0.09_PT001H.grib2 2026-04-23 02:40 837K
20260423T00Z_MSC_RDPS_WindSpeed_IsbL-1015_RLatLon0.09_PT001H.grib2 2026-04-23 02:40 828K
20260423T00Z_MSC_RDPS_WindU_AGL-10m_RLatLon0.09_PT001H.grib2 2026-04-23 02:40 428K
20260423T00Z_MSC_RDPS_WindU_AGL-120m_RLatLon0.09_PT001H.grib2 2026-04-23 02:40 526K
20260423T00Z_MSC_RDPS_WindU_AGL-40m_RLatLon0.09_PT001H.grib2 2026-04-23 02:40 531K
20260423T00Z_MSC_RDPS_WindU_AGL-80m_RLatLon0.09_PT001H.grib2 2026-04-23 02:40 528K
20260423T00Z_MSC_RDPS_WindU_IsbL-0001_RLatLon0.09_PT001H.grib2 2026-04-23 02:40 233K
20260423T00Z_MSC_RDPS_WindU_IsbL-0005_RLatLon0.09_PT001H.grib2 2026-04-23 02:40 319K
20260423T00Z_MSC_RDPS_WindU_IsbL-0010_RLatLon0.09_PT001H.grib2 2026-04-23 02:40 329K
20260423T00Z_MSC_RDPS_WindU_IsbL-0020_RLatLon0.09_PT001H.grib2 2026-04-23 02:40 342K
20260423T00Z_MSC_RDPS_WindU_IsbL-0030_RLatLon0.09_PT001H.grib2 2026-04-23 02:40 345K
20260423T00Z_MSC_RDPS_WindU_IsbL-0050_RLatLon0.09_PT001H.grib2 2026-04-23 02:40 336K
20260423T00Z_MSC_RDPS_WindU_IsbL-0100_RLatLon0.09_PT001H.grib2 2026-04-23 02:40 425K
20260423T00Z_MSC_RDPS_WindU_IsbL-0150_RLatLon0.09_PT001H.grib2 2026-04-23 02:40 392K
20260423T00Z_MSC_RDPS_WindU_IsbL-0175_RLatLon0.09_PT001H.grib2 2026-04-23 02:40 418K
20260423T00Z_MSC_RDPS_WindU_IsbL-0200_RLatLon0.09_PT001H.grib2 2026-04-23 02:40 435K
20260423T00Z_MSC_RDPS_WindU_IsbL-0225_RLatLon0.09_PT001H.grib2 2026-04-23 02:40 438K
20260423T00Z_MSC_RDPS_WindU_IsbL-0250_RLatLon0.09_PT001H.grib2 2026-04-23 02:40 340K
20260423T00Z_MSC_RDPS_WindU_IsbL-0275_RLatLon0.09_PT001H.grib2 2026-04-23 02:40 350K
20260423T00Z_MSC_RDPS_WindU_IsbL-0300_RLatLon0.09_PT001H.grib2 2026-04-23 02:40 346K
20260423T00Z_MSC_RDPS_WindU_IsbL-0350_RLatLon0.09_PT001H.grib2 2026-04-23 02:40 354K
20260423T00Z_MSC_RDPS_WindU_IsbL-0400_RLatLon0.09_PT001H.grib2 2026-04-23 02:40 359K
20260423T00Z_MSC_RDPS_WindU_IsbL-0450_RLatLon0.09_PT001H.grib2 2026-04-23 02:40 362K
20260423T00Z_MSC_RDPS_WindU_IsbL-0500_RLatLon0.09_PT001H.grib2 2026-04-23 02:40 467K
20260423T00Z_MSC_RDPS_WindU_IsbL-0550_RLatLon0.09_PT001H.grib2 2026-04-23 02:40 472K
20260423T00Z_MSC_RDPS_WindU_IsbL-0600_RLatLon0.09_PT001H.grib2 2026-04-23 02:40 483K
20260423T00Z_MSC_RDPS_WindU_IsbL-0650_RLatLon0.09_PT001H.grib2 2026-04-23 02:40 499K
20260423T00Z_MSC_RDPS_WindU_IsbL-0700_RLatLon0.09_PT001H.grib2 2026-04-23 02:40 514K
20260423T00Z_MSC_RDPS_WindU_IsbL-0750_RLatLon0.09_PT001H.grib2 2026-04-23 02:40 537K
20260423T00Z_MSC_RDPS_WindU_IsbL-0800_RLatLon0.09_PT001H.grib2 2026-04-23 02:40 580K
20260423T00Z_MSC_RDPS_WindU_IsbL-0850_RLatLon0.09_PT001H.grib2 2026-04-23 02:40 620K
20260423T00Z_MSC_RDPS_WindU_IsbL-0875_RLatLon0.09_PT001H.grib2 2026-04-23 02:40 633K
20260423T00Z_MSC_RDPS_WindU_IsbL-0900_RLatLon0.09_PT001H.grib2 2026-04-23 02:40 643K
20260423T00Z_MSC_RDPS_WindU_IsbL-0925_RLatLon0.09_PT001H.grib2 2026-04-23 02:40 643K
20260423T00Z_MSC_RDPS_WindU_IsbL-0950_RLatLon0.09_PT001H.grib2 2026-04-23 02:40 641K
20260423T00Z_MSC_RDPS_WindU_IsbL-0970_RLatLon0.09_PT001H.grib2 2026-04-23 02:40 644K
20260423T00Z_MSC_RDPS_WindU_IsbL-0985_RLatLon0.09_PT001H.grib2 2026-04-23 02:40 782K
20260423T00Z_MSC_RDPS_WindU_IsbL-1000_RLatLon0.09_PT001H.grib2 2026-04-23 02:40 776K
20260423T00Z_MSC_RDPS_WindU_IsbL-1015_RLatLon0.09_PT001H.grib2 2026-04-23 02:40 768K
20260423T00Z_MSC_RDPS_WindV_AGL-10m_RLatLon0.09_PT001H.grib2 2026-04-23 02:40 422K
20260423T00Z_MSC_RDPS_WindV_AGL-120m_RLatLon0.09_PT001H.grib2 2026-04-23 02:40 518K
20260423T00Z_MSC_RDPS_WindV_AGL-40m_RLatLon0.09_PT001H.grib2 2026-04-23 02:40 523K
20260423T00Z_MSC_RDPS_WindV_AGL-80m_RLatLon0.09_PT001H.grib2 2026-04-23 02:40 520K
20260423T00Z_MSC_RDPS_WindV_IsbL-0001_RLatLon0.09_PT001H.grib2 2026-04-23 02:40 283K
20260423T00Z_MSC_RDPS_WindV_IsbL-0005_RLatLon0.09_PT001H.grib2 2026-04-23 02:40 316K
20260423T00Z_MSC_RDPS_WindV_IsbL-0010_RLatLon0.09_PT001H.grib2 2026-04-23 02:40 328K
20260423T00Z_MSC_RDPS_WindV_IsbL-0020_RLatLon0.09_PT001H.grib2 2026-04-23 02:40 304K
20260423T00Z_MSC_RDPS_WindV_IsbL-0030_RLatLon0.09_PT001H.grib2 2026-04-23 02:40 345K
20260423T00Z_MSC_RDPS_WindV_IsbL-0050_RLatLon0.09_PT001H.grib2 2026-04-23 02:40 335K
20260423T00Z_MSC_RDPS_WindV_IsbL-0100_RLatLon0.09_PT001H.grib2 2026-04-23 02:40 327K
20260423T00Z_MSC_RDPS_WindV_IsbL-0150_RLatLon0.09_PT001H.grib2 2026-04-23 02:40 389K
20260423T00Z_MSC_RDPS_WindV_IsbL-0175_RLatLon0.09_PT001H.grib2 2026-04-23 02:40 416K
20260423T00Z_MSC_RDPS_WindV_IsbL-0200_RLatLon0.09_PT001H.grib2 2026-04-23 02:40 336K
20260423T00Z_MSC_RDPS_WindV_IsbL-0225_RLatLon0.09_PT001H.grib2 2026-04-23 02:40 339K
20260423T00Z_MSC_RDPS_WindV_IsbL-0250_RLatLon0.09_PT001H.grib2 2026-04-23 02:40 339K
20260423T00Z_MSC_RDPS_WindV_IsbL-0275_RLatLon0.09_PT001H.grib2 2026-04-23 02:40 374K
20260423T00Z_MSC_RDPS_WindV_IsbL-0300_RLatLon0.09_PT001H.grib2 2026-04-23 02:40 371K
20260423T00Z_MSC_RDPS_WindV_IsbL-0350_RLatLon0.09_PT001H.grib2 2026-04-23 02:40 379K
20260423T00Z_MSC_RDPS_WindV_IsbL-0400_RLatLon0.09_PT001H.grib2 2026-04-23 02:40 357K
20260423T00Z_MSC_RDPS_WindV_IsbL-0450_RLatLon0.09_PT001H.grib2 2026-04-23 02:40 359K
20260423T00Z_MSC_RDPS_WindV_IsbL-0500_RLatLon0.09_PT001H.grib2 2026-04-23 02:40 464K
20260423T00Z_MSC_RDPS_WindV_IsbL-0550_RLatLon0.09_PT001H.grib2 2026-04-23 02:40 469K
20260423T00Z_MSC_RDPS_WindV_IsbL-0600_RLatLon0.09_PT001H.grib2 2026-04-23 02:40 480K
20260423T00Z_MSC_RDPS_WindV_IsbL-0650_RLatLon0.09_PT001H.grib2 2026-04-23 02:40 480K
20260423T00Z_MSC_RDPS_WindV_IsbL-0700_RLatLon0.09_PT001H.grib2 2026-04-23 02:40 496K
20260423T00Z_MSC_RDPS_WindV_IsbL-0750_RLatLon0.09_PT001H.grib2 2026-04-23 02:40 519K
20260423T00Z_MSC_RDPS_WindV_IsbL-0800_RLatLon0.09_PT001H.grib2 2026-04-23 02:40 562K
20260423T00Z_MSC_RDPS_WindV_IsbL-0850_RLatLon0.09_PT001H.grib2 2026-04-23 02:40 605K
20260423T00Z_MSC_RDPS_WindV_IsbL-0875_RLatLon0.09_PT001H.grib2 2026-04-23 02:40 621K
20260423T00Z_MSC_RDPS_WindV_IsbL-0900_RLatLon0.09_PT001H.grib2 2026-04-23 02:40 631K
20260423T00Z_MSC_RDPS_WindV_IsbL-0925_RLatLon0.09_PT001H.grib2 2026-04-23 02:40 639K
20260423T00Z_MSC_RDPS_WindV_IsbL-0950_RLatLon0.09_PT001H.grib2 2026-04-23 02:40 634K
20260423T00Z_MSC_RDPS_WindV_IsbL-0970_RLatLon0.09_PT001H.grib2 2026-04-23 02:40 774K
20260423T00Z_MSC_RDPS_WindV_IsbL-0985_RLatLon0.09_PT001H.grib2 2026-04-23 02:40 771K
20260423T00Z_MSC_RDPS_WindV_IsbL-1000_RLatLon0.09_PT001H.grib2 2026-04-23 02:40 765K
20260423T00Z_MSC_RDPS_WindV_IsbL-1015_RLatLon0.09_PT001H.grib2 2026-04-23 02:40 805K